546  
ASUS41 KBOX 210910  
RWRBOX  
 
REGIONAL WEATHER ROUNDUP  
NATIONAL WEATHER SERVICE TAUNTON MA  
400 AM EST TUE FEB 21 2017  
 
NOTE: "FAIR" INDICATES FEW OR NO CLOUDS BELOW 12,000 FEET WITH NO  
SIGNIFICANT WEATHER AND/OR S TO VISIBILITY
.  
 
MAZALL-211000-  
EASTERN MASSACHUSETTS  
 
CITY SKY/WX TMP DP RH WIND PRES REMARKS
 
BOSTON CLEAR 31 16 54 NW7 30.38S WCI 24  
BEVERLY CLEAR 22 14 71 NW7 30.37R WCI 13  
LAWRENCE CLEAR 23 15 71 CALM 30.39R  
BEDFORD CLEAR 21 13 71 CALM 30.37S  
BLUE HILL N/A 25 13 60 NW8 30.33 WCI 16  
NORWOOD CLEAR 20 16 84 CALM 30.38R  
MARSHFIELD CLEAR 28 23 80 NW3 30.36S  
PLYMOUTH CLEAR 27 18 69 NW6 30.36R WCI 20  
TAUNTON CLEAR 19 16 88 CALM 30.36R  
NEW BEDFORD CLEAR 29 16 58 VRB3 30.35S  

 
 
MAZALL-211000-  
CAPE COD AND THE ISLANDS  
 
CITY SKY/WX TMP DP RH WIND PRES REMARKS
 
FALMOUTH CLEAR 30 23 74 MISG 30.35S  
HYANNIS CLEAR 35 26 69 N6 30.32S WCI 30  
CHATHAM CLEAR 32 24 72 N5 30.33S WCI 27  
PROVINCETOWN CLEAR 37 25 61 NE10 30.35R WCI 30  
NANTUCKET CLEAR 35 28 75 N10 30.32R WCI 27  
MARTHAS VNYRD CLEAR 30 23 75 N7 30.34R WCI 23  

 
 
MAZALL-211000-  
CENTRAL AND WESTERN MASSACHUSETTS  
 
CITY SKY/WX TMP DP RH WIND PRES REMARKS
 
WORCESTER CLOUDY 29 8 41 N6 30.32F WCI 23  
FITCHBURG CLOUDY 21 16 81 NW3 30.37F  
ORANGE CLOUDY 15 14 95 CALM 30.37F  
SPRINGFIELD CLOUDY 20 12 71 CALM 30.36S  
WESTFIELD CLOUDY 19 14 81 CALM 30.37S  
NORTH ADAMS CLOUDY 13 8 81 CALM 30.36F  
PITTSFIELD CLOUDY 17 10 74 CALM 30.31S  

 
 
RIZALL-211000-  
RHODE ISLAND  
 
CITY SKY/WX TMP DP RH WIND PRES REMARKS
 
PROVIDENCE CLEAR 29 14 53 N8 30.37S WCI 21  
NEWPORT CLEAR 30 18 60 N7 30.35S WCI 23  
BLOCK ISLAND CLEAR 33 20 58 N7 30.36S WCI 27  
SMITHFIELD CLEAR 25 15 66 N5 30.35F WCI 19  
WESTERLY CLEAR 29 13 51 N5 30.37S WCI 24  

 
 
CTZALL-211000-  
CONNECTICUT  
 
CITY SKY/WX TMP DP RH WIND PRES REMARKS
 
BRADLEY INTL CLOUDY 25 12 58 N5 30.38S WCI 19  
HARTFORD CLOUDY 24 17 74 CALM 30.39S  
BRIDGEPORT CLEAR 33 15 47 N6 30.37S WCI 28  
DANBURY CLOUDY 21 14 74 CALM 30.37R  
GROTON CLEAR 29 15 56 N7 30.36F WCI 22  
NEW HAVEN CLEAR 29 13 51 N9 30.36F WCI 20  
CHESTER FAIR 30 12 47 N6 30.35S WCI 24  
MERIDEN CLOUDY 23 15 71 CALM 30.37F  
WILLIMANTIC CLOUDY 22 17 81 CALM 30.37F  
OXFORD CLOUDY 30 9 40 NE6 30.35R WCI 24  

 
 
MEZ002-015-021-024-NHZ003-005-008-011-012-014-VTZ005-008-211000-  
NORTHERN NEW ENGLAND  
 
CITY SKY/WX TMP DP RH WIND PRES REMARKS
 
PORTLAND ME CLOUDY 20 12 71 W6 30.38R WCI 12  
BANGOR ME CLOUDY 18 6 59 N8 30.35S WCI 8  
CONCORD NH CLOUDY 16 11 80 CALM 30.38S  
MANCHESTER NH CLOUDY 24 13 62 N3 30.37S  
NASHUA NH CLOUDY 19 15 84 CALM 30.38F  
PORTSMOUTH NH CLEAR 23 14 68 CALM 30.37R  
JAFFREY NH CLOUDY 13 10 88 CALM 30.34S  
KEENE NH CLOUDY 14 13 95 CALM 30.39S  
BURLINGTON VT CLOUDY 19 14 81 CALM 30.36F  
MT. WASHINGTON PTCLDY 27 -9 20 NE18 N/A WCI 13  

 
 
NYZ052-076-211000-  
EASTERN NEW YORK  
 
CITY SKY/WX TMP DP RH WIND PRES REMARKS
 
ALBANY CLOUDY 21 13 71 CALM 30.38F  
NEW YORK CITY PTCLDY 37 15 40 NE7 30.36S WCI 32  

 
 
ANZALL-211000-  
MARINE OBSERVATIONS  
 
STATION/POSITION TIME TEMP WIND PRES VSBY WAVE
 
AIR SEA DIR/SP/G HT/PER  
(UTC) (F) (DEG/KT/KT) (MB) (MI) (FT/S)  
BOSTON BUOY 0850 38 42 10/ 10/ 14 1027.5R 4/ 6  
BUZZARDS BAY 0800 34 10/ 12/ 13 1028.2R  
NANTUCKET SOUND 0850 38 38 350/ 12/ 14 1026.8R 2/ 3  
MASS BAY-STELLWA 0804 38 40 20/ 12/ 16 1026.8R 5/ 6  
ISLE OF SHOALS 0900 35 10/ 8/ 10 1028.2R  
S OF BLOCK IS 0855 42 N/A 3/ 4  

 
   
.....................KEY......................
 
 
SKY/WX - SKY CONDITION/PRESENT WEATHER  
TMP - TEMPERATURE IN FAHRENHEIT  
DWPT - DEWPOINT IN FAHRENHEIT  
RH - RELATIVE HUMIDITY IN PERCENT  
WIND - DIRECTION AND SPEED IN MPH  
PRES - MEAN SEA LEVEL PRESSURE IN INCHES OF HG  
WCI - WIND CHILL INDEX  
VSB - VISIBILITY IN MILES  
HX - HEAT INDEX  
TC - TEMPERATURE IN CELSIUS  
VRB - VARIABLE WIND DIRECTION  
N/A - NOT AVAILABLE  
 
 
CLICK HERE TO GO TO PREVIOUS BULLETINS.

The Nexlab MA Page
The Nexlab RI Page
The Nexlab NH Page
The Nexlab CT Page Main Text Page